FW7988 Weather Reports


Display with metric or nautical units.
time (UTC)temp
F
wind
direction
speed
MPH
gust
MPH
rain 1hr
in
rain 24hr
in
rain mn
in
humidity
%
barometer
mb
20260904131701 78 133 4.0 8.0 0.00 0.00 0.00 90
20260904131157 78 121 2.0 6.0 0.00 0.00 0.00 90
20260904130657 78 132 8.0 9.0 0.00 0.00 0.00 90
20260904130156 78 132 3.0 6.0 0.00 0.00 0.00 90
20260904125653 78 138 8.0 10.0 0.00 0.00 0.00 91
20260904125148 78 168 7.0 8.0 0.00 0.00 0.00 91
20260904124643 77 178 5.0 7.0 0.00 0.00 0.00 91
20260904124139 77 193 5.0 6.0 0.00 0.00 0.00 92
20260904123639 77 200 3.0 6.0 0.00 0.00 0.00 92
20260904123135 77 174 3.0 5.0 0.00 0.00 0.00 92
20260904122635 77 162 6.0 9.0 0.00 0.00 0.00 92
20260904122130 77 174 4.0 6.0 0.00 0.00 0.00 91
20260904121625 77 141 5.0 7.0 0.00 0.00 0.00 91
20260904121120 77 150 6.0 8.0 0.00 0.00 0.00 91
20260904120617 77 116 5.0 6.0 0.00 0.00 0.00 91
20260904120113 78 137 5.0 6.0 0.00 0.00 0.00 90
20260904115608 78 143 4.0 8.0 0.00 0.00 0.00 90
20260904115102 78 148 4.0 6.0 0.00 0.00 0.00 90
20260904114556 78 139 4.0 9.0 0.00 0.00 0.00 90
20260904114056 78 153 4.0 6.0 0.00 0.00 0.00 90
20260904113551 78 127 8.0 9.0 0.00 0.00 0.00 90
20260904113050 78 124 8.0 9.0 0.00 0.00 0.00 90
20260904112546 78 127 3.0 5.0 0.00 0.00 0.00 90
20260904112042 78 124 4.0 6.0 0.00 0.00 0.00 90
20260904111537 78 145 3.0 6.0 0.00 0.00 0.00 89
20260904111033 78 135 3.0 6.0 0.00 0.00 0.00 89
20260904110532 78 129 4.0 5.0 0.00 0.00 0.00 89
20260904110028 78 176 5.0 7.0 0.00 0.00 0.00 89
20260904105522 78 178 4.0 6.0 0.00 0.00 0.00 90
20260904105017 78 169 4.0 9.0 0.00 0.00 0.00 90
20260904104513 78 179 7.0 8.0 0.00 0.00 0.00 90
20260904104008 78 180 4.0 8.0 0.00 0.00 0.00 90
20260904103504 78 198 4.0 7.0 0.00 0.00 0.00 90
20260904103000 78 180 2.0 8.0 0.00 0.00 0.00 89
20260904102455 78 196 6.0 7.0 0.00 0.00 0.00 89
20260904101950 78 169 4.0 6.0 0.00 0.00 0.00 89
20260904101447 78 105 5.0 7.0 0.00 0.00 0.00 89
20260904100943 78 94 3.0 5.0 0.00 0.00 0.00 89
20260904100438 78 105 1.0 3.0 0.00 0.00 0.00 89
20260904095932 78 191 1.0 5.0 0.00 0.00 0.00 89
20260904095427 78 227 3.0 5.0 0.00 0.00 0.00 89
20260904094922 78 148 5.0 7.0 0.00 0.00 0.00 89
20260904094418 78 154 6.0 8.0 0.00 0.00 0.00 89
20260904093914 78 184 4.0 7.0 0.00 0.00 0.00 88
20260904093414 78 187 3.0 5.0 0.00 0.00 0.00 88
20260904092909 78 105 2.0 5.0 0.00 0.00 0.00 88
20260904092405 78 110 1.0 3.0 0.00 0.00 0.00 88
20260904091855 78 185 7.0 8.0 0.00 0.00 0.00 88
20260904091351 78 149 2.0 3.0 0.00 0.00 0.00 88
20260904090845 78 152 3.0 3.0 0.00 0.00 0.00 88
20260904090341 78 182 1.0 3.0 0.00 0.00 0.00 88
20260904085836 78 157 1.0 5.0 0.00 0.00 0.00 88
20260904085331 78 208 4.0 7.0 0.00 0.00 0.00 87
20260904084826 78 149 3.0 6.0 0.00 0.00 0.00 87
20260904084322 78 187 3.0 6.0 0.00 0.00 0.00 87
20260904083818 78 193 1.0 7.0 0.00 0.00 0.00 87
20260904083314 78 170 3.0 6.0 0.00 0.00 0.00 86
20260904082809 78 210 6.0 10.0 0.00 0.00 0.00 86
20260904082305 78 182 10.0 13.0 0.00 0.00 0.00 86
20260904081759 78 206 9.0 10.0 0.00 0.00 0.00 86
20260904081254 78 156 6.0 9.0 0.00 0.00 0.00 86
20260904080750 78 150 5.0 13.0 0.00 0.00 0.00 86
20260904080245 78 173 9.0 13.0 0.00 0.00 0.00 86
20260904075741 78 141 4.0 9.0 0.00 0.00 0.00 86
20260904075236 78 177 5.0 8.0 0.00 0.00 0.00 85
20260904074736 78 182 7.0 10.0 0.00 0.00 0.00 85
20260904074230 79 190 3.0 9.0 0.00 0.00 0.00 85
20260904073726 79 216 9.0 11.0 0.00 0.00 0.00 85
20260904073222 79 206 5.0 9.0 0.00 0.00 0.00 85
20260904072718 79 181 6.0 17.0 0.00 0.00 0.00 85
20260904072212 79 180 9.0 10.0 0.00 0.00 0.00 85
20260904071708 79 215 9.0 13.0 0.00 0.00 0.00 85
20260904071203 79 170 9.0 11.0 0.00 0.00 0.00 85
20260904070702 79 208 7.0 9.0 0.00 0.00 0.00 84
20260904070201 79 188 8.0 14.0 0.00 0.00 0.00 84
20260904065656 79 200 8.0 10.0 0.00 0.00 0.00 84
20260904065153 79 169 6.0 11.0 0.00 0.00 0.00 84
20260904064647 79 200 10.0 16.0 0.00 0.00 0.00 84
20260904064143 79 181 3.0 8.0 0.00 0.00 0.00 84
20260904063639 79 179 9.0 13.0 0.00 0.00 0.00 83
20260904063134 79 169 6.0 13.0 0.00 0.00 0.00 83
20260904062630 79 150 4.0 13.0 0.00 0.00 0.00 83
20260904062125 79 186 11.0 15.0 0.00 0.00 0.00 83
20260904061621 79 95 5.0 14.0 0.00 0.00 0.00 83
20260904061117 79 211 5.0 13.0 0.00 0.00 0.00 83
20260904060613 79 188 6.0 11.0 0.00 0.00 0.00 83
20260904060109 79 166 7.0 10.0 0.00 0.00 0.00 83
20260904055604 79 161 8.0 16.0 0.00 0.00 0.00 82
20260904055059 79 133 5.0 11.0 0.00 0.00 0.00 82
20260904054555 79 182 6.0 13.0 0.00 0.00 0.00 82
20260904054050 79 152 5.0 11.0 0.00 0.00 0.00 81
20260904053550 79 193 10.0 13.0 0.00 0.00 0.00 81
20260904053046 79 92 4.0 9.0 0.00 0.00 0.00 81
20260904052542 79 185 3.0 7.0 0.00 0.00 0.00 80
20260904052037 79 163 5.0 8.0 0.00 0.00 0.00 80
20260904051534 79 178 6.0 8.0 0.00 0.00 0.00 80
20260904051032 79 209 7.0 9.0 0.00 0.00 0.00 79
20260904050529 79 99 7.0 10.0 0.00 0.00 0.00 79
20260904050025 80 136 3.0 8.0 0.00 0.00 0.00 79
20260904045520 80 172 3.0 6.0 0.00 0.00 0.00 78
20260904045014 80 140 5.0 8.0 0.00 0.00 0.00 78
20260904044510 80 135 4.0 6.0 0.00 0.00 0.00 78
20260904044007 80 134 5.0 10.0 0.00 0.00 0.00 78
20260904043503 80 131 6.0 7.0 0.00 0.00 0.00 77
20260904042958 80 168 3.0 8.0 0.00 0.00 0.00 77
20260904042454 80 171 7.0 8.0 0.00 0.00 0.00 77
20260904041948 80 192 3.0 7.0 0.00 0.00 0.00 77
20260904041446 80 155 6.0 9.0 0.00 0.00 0.00 77
20260904040941 80 137 7.0 10.0 0.00 0.00 0.00 76
20260904040441 80 147 7.0 10.0 0.00 0.00 0.00 76
20260904035937 81 69 5.0 13.0 0.00 0.00 0.00 76
20260904035433 81 137 11.0 11.0 0.00 0.00 0.00 76
20260904034932 81 174 5.0 11.0 0.00 0.00 0.00 75
20260904034427 81 142 6.0 11.0 0.00 0.00 0.00 75
20260904033923 81 153 11.0 15.0 0.00 0.00 0.00 75
20260904033413 81 138 7.0 11.0 0.00 0.00 0.00 74
20260904032909 81 114 8.0 10.0 0.00 0.00 0.00 74
20260904032404 82 129 7.0 11.0 0.00 0.00 0.00 73
20260904031858 82 137 10.0 14.0 0.00 0.00 0.00 73
20260904031353 82 133 12.0 14.0 0.00 0.00 0.00 73
20260904030850 82 128 8.0 10.0 0.00 0.00 0.00 72
20260904030345 82 104 9.0 14.0 0.00 0.00 0.00 72
20260904025841 82 152 9.0 13.0 0.00 0.00 0.00 72
20260904025337 82 116 10.0 13.0 0.00 0.00 0.00 72
20260904024836 82 166 7.0 13.0 0.00 0.00 0.00 72
20260904024331 82 111 10.0 13.0 0.00 0.00 0.00 72
20260904023828 82 134 5.0 10.0 0.00 0.00 0.00 72
20260904023324 82 161 10.0 13.0 0.00 0.00 0.00 72
20260904022822 83 114 8.0 9.0 0.00 0.00 0.00 71
20260904022320 83 112 5.0 9.0 0.00 0.00 0.00 71
20260904021816 83 100 5.0 8.0 0.00 0.00 0.00 71
20260904021316 83 117 9.0 11.0 0.00 0.00 0.00 71
20260904020811 83 143 6.0 9.0 0.00 0.00 0.00 71
20260904020306 83 120 3.0 9.0 0.00 0.00 0.00 70
20260904015804 83 145 7.0 8.0 0.00 0.00 0.00 70
20260904015300 83 144 5.0 9.0 0.00 0.00 0.00 70
20260904014758 83 139 5.0 10.0 0.00 0.00 0.00 70
20260904014254 83 144 5.0 9.0 0.00 0.00 0.00 69
20260904013750 84 148 5.0 10.0 0.00 0.00 0.00 69
20260904013246 84 150 4.0 9.0 0.00 0.00 0.00 68
20260904012742 84 134 8.0 9.0 0.00 0.00 0.00 68
20260904012241 84 81 8.0 11.0 0.00 0.00 0.00 67
20260904011740 85 142 8.0 11.0 0.00 0.00 0.00 67
20260904011236 85 146 9.0 11.0 0.00 0.00 0.00 65
20260904010730 85 108 6.0 10.0 0.00 0.00 0.00 65
20260904010227 85 153 12.0 14.0 0.00 0.00 0.00 65
20260904005727 85 129 10.0 15.0 0.00 0.00 0.00 64
20260904005223 86 110 12.0 14.0 0.00 0.00 0.00 64
20260904004718 86 101 10.0 13.0 0.00 0.00 0.00 64
20260904004213 86 125 11.0 16.0 0.00 0.00 0.00 63
20260904003708 86 151 7.0 14.0 0.00 0.00 0.00 63
20260904003205 86 155 12.0 15.0 0.00 0.00 0.00 63
20260904002700 86 104 9.0 14.0 0.00 0.00 0.00 63
20260904002156 87 151 8.0 14.0 0.00 0.00 0.00 62
20260904001651 87 143 7.0 10.0 0.00 0.00 0.00 63
20260904001149 87 120 9.0 16.0 0.00 0.00 0.00 62
20260904000645 87 161 9.0 20.0 0.00 0.00 0.00 62
20260904000140 87 125 16.0 18.0 0.00 0.00 0.00 62
20260903235640 87 138 6.0 9.0 0.00 0.00 0.00 63
20260903235136 88 148 5.0 11.0 0.00 0.00 0.00 63
20260903234630 88 124 7.0 14.0 0.00 0.00 0.00 62
20260903234126 88 121 13.0 17.0 0.00 0.00 0.00 62
20260903233623 88 126 12.0 23.0 0.00 0.00 0.00 61
20260903233118 89 97 8.0 11.0 0.00 0.00 0.00 61
20260903232613 89 133 6.0 21.0 0.00 0.00 0.00 60
20260903232108 89 155 16.0 21.0 0.00 0.00 0.00 58
20260903231603 90 125 9.0 17.0 0.00 0.00 0.00 57
20260903231102 92 104 15.0 22.0 0.00 0.00 0.00 53
20260903230559 92 84 9.0 13.0 0.00 0.00 0.00 54
20260903230057 92 69 8.0 15.0 0.00 0.00 0.00 53
20260903225555 92 164 4.0 14.0 0.00 0.00 0.00 52
20260903225051 92 111 9.0 17.0 0.00 0.00 0.00 52
20260903224547 92 116 9.0 15.0 0.00 0.00 0.00 53
20260903224043 93 129 9.0 17.0 0.00 0.00 0.00 52
20260903223543 94 122 16.0 21.0 0.00 0.00 0.00 51
20260903223042 96 142 16.0 20.0 0.00 0.00 0.00 46
20260903222537 96 127 7.0 14.0 0.00 0.00 0.00 46
20260903222035 96 88 8.0 17.0 0.00 0.00 0.00 46
20260903221531 97 118 4.0 13.0 0.00 0.00 0.00 46
20260903221028 97 171 12.0 14.0 0.00 0.00 0.00 45
20260903220528 97 143 4.0 13.0 0.00 0.00 0.00 45
20260903220028 98 115 10.0 13.0 0.00 0.00 0.00 43
20260903215522 98 150 4.0 10.0 0.00 0.00 0.00 42
20260903215022 98 67 5.0 7.0 0.00 0.00 0.00 42
20260903214521 97 94 9.0 10.0 0.00 0.00 0.00 44
20260903214022 97 117 9.0 15.0 0.00 0.00 0.00 44
20260903213517 97 170 10.0 13.0 0.00 0.00 0.00 44
20260903213013 97 165 2.0 8.0 0.00 0.00 0.00 43
20260903212508 97 110 3.0 7.0 0.00 0.00 0.00 44
20260903212003 98 145 11.0 15.0 0.00 0.00 0.00 43
20260903211458 97 115 2.0 6.0 0.00 0.00 0.00 43
20260903210955 97 171 5.0 8.0 0.00 0.00 0.00 42
20260903210454 97 184 4.0 7.0 0.00 0.00 0.00 43
20260903205950 96 100 4.0 7.0 0.00 0.00 0.00 44
20260903205444 96 119 6.0 11.0 0.00 0.00 0.00 44
20260903204938 97 98 3.0 6.0 0.00 0.00 0.00 43
20260903204435 96 138 7.0 11.0 0.00 0.00 0.00 44
20260903203930 96 123 5.0 13.0 0.00 0.00 0.00 45
20260903203426 97 116 9.0 13.0 0.00 0.00 0.00 44
20260903202925 97 182 10.0 11.0 0.00 0.00 0.00 43
20260903202421 97 187 7.0 13.0 0.00 0.00 0.00 44
20260903201921 98 178 8.0 13.0 0.00 0.00 0.00 43
20260903201417 98 112 5.0 13.0 0.00 0.00 0.00 45
20260903200915 98 130 11.0 13.0 0.00 0.00 0.00 44
20260903200410 97 126 9.0 9.0 0.00 0.00 0.00 45
20260903195905 96 135 5.0 7.0 0.00 0.00 0.00 46
20260903195402 96 116 6.0 11.0 0.00 0.00 0.00 47
20260903194856 97 124 5.0 13.0 0.00 0.00 0.00 46
20260903194352 97 212 5.0 13.0 0.00 0.00 0.00 46
20260903193847 96 197 3.0 11.0 0.00 0.00 0.00 44
20260903193344 96 143 5.0 9.0 0.00 0.00 0.00 46
20260903192838 97 184 9.0 11.0 0.00 0.00 0.00 44
20260903192334 99 149 5.0 6.0 0.00 0.00 0.00 43
20260903191830 98 109 1.0 10.0 0.00 0.00 0.00 43
20260903191326 98 243 5.0 10.0 0.00 0.00 0.00 43
20260903190825 97 186 2.0 6.0 0.00 0.00 0.00 43
20260903190320 96 247 9.0 16.0 0.00 0.00 0.00 44
20260903185820 96 234 9.0 11.0 0.00 0.00 0.00 45
20260903185315 96 145 6.0 10.0 0.00 0.00 0.00 46
20260903184811 96 149 7.0 11.0 0.00 0.00 0.00 45
20260903184308 95 212 3.0 8.0 0.00 0.00 0.00 46
20260903183802 96 238 14.0 16.0 0.00 0.00 0.00 47
20260903183256 97 235 8.0 13.0 0.00 0.00 0.00 45
20260903182755 96 215 4.0 5.0 0.00 0.00 0.00 45
20260903182250 96 223 7.0 10.0 0.00 0.00 0.00 45
20260903181749 95 187 4.0 14.0 0.00 0.00 0.00 47
20260903181244 95 224 6.0 10.0 0.00 0.00 0.00 46
20260903180740 95 245 7.0 9.0 0.00 0.00 0.00 45
20260903180239 94 184 6.0 9.0 0.00 0.00 0.00 47
20260903175738 94 190 8.0 9.0 0.00 0.00 0.00 47
20260903175238 95 241 4.0 9.0 0.00 0.00 0.00 49
20260903174737 93 183 6.0 16.0 0.00 0.00 0.00 50
20260903174233 93 222 8.0 11.0 0.00 0.00 0.00 51
20260903173728 94 178 9.0 16.0 0.00 0.00 0.00 50
20260903173224 93 195 9.0 11.0 0.00 0.00 0.00 51
20260903172724 93 188 7.0 8.0 0.00 0.00 0.00 50
20260903172219 93 186 5.0 9.0 0.00 0.00 0.00 51
20260903171714 93 170 9.0 14.0 0.00 0.00 0.00 52
20260903171210 92 193 7.0 9.0 0.00 0.00 0.00 53
20260903170708 91 181 10.0 13.0 0.00 0.00 0.00 52
20260903170204 92 172 7.0 13.0 0.00 0.00 0.00 52
20260903165702 92 181 8.0 10.0 0.00 0.00 0.00 53
20260903165157 90 190 5.0 11.0 0.00 0.00 0.00 57
20260903164651 90 181 7.0 15.0 0.00 0.00 0.00 55
20260903164148 90 211 8.0 13.0 0.00 0.00 0.00 56
20260903163647 90 185 10.0 16.0 0.00 0.00 0.00 56
20260903163144 89 190 6.0 9.0 0.00 0.00 0.00 57
20260903162639 89 228 6.0 13.0 0.00 0.00 0.00 59
20260903162135 90 192 6.0 11.0 0.00 0.00 0.00 59
20260903161630 90 192 9.0 10.0 0.00 0.00 0.00 59
20260903161126 90 221 5.0 9.0 0.00 0.00 0.00 58
20260903160621 89 221 6.0 10.0 0.00 0.00 0.00 59
20260903160115 88 219 5.0 10.0 0.00 0.00 0.00 62
20260903155614 88 197 6.0 11.0 0.00 0.00 0.00 62
20260903155109 88 232 6.0 9.0 0.00 0.00 0.00 63
20260903154559 88 229 5.0 9.0 0.00 0.00 0.00 63
20260903154056 87 247 9.0 13.0 0.00 0.00 0.00 63
20260903153550 86 230 9.0 13.0 0.00 0.00 0.00 65
20260903153046 87 222 6.0 13.0 0.00 0.00 0.00 66
20260903152542 87 248 5.0 10.0 0.00 0.00 0.00 66
20260903152038 86 183 7.0 15.0 0.00 0.00 0.00 67
20260903151537 86 171 9.0 14.0 0.00 0.00 0.00 66
20260903151027 85 155 10.0 13.0 0.00 0.00 0.00 68
20260903150526 85 186 11.0 18.0 0.00 0.00 0.00 69
20260903150022 84 216 9.0 15.0 0.00 0.00 0.00 70
20260903145516 84 229 14.0 22.0 0.00 0.00 0.00 71
20260903145012 84 215 13.0 15.0 0.00 0.00 0.00 71
20260903144510 84 250 6.0 18.0 0.00 0.00 0.00 72
20260903144006 84 173 9.0 13.0 0.00 0.00 0.00 73
20260903143503 83 228 9.0 14.0 0.00 0.00 0.00 74
20260903142958 83 195 15.0 21.0 0.00 0.00 0.00 74
20260903142453 83 217 8.0 16.0 0.00 0.00 0.00 75
20260903141949 83 207 11.0 16.0 0.00 0.00 0.00 76
20260903141445 82 243 5.0 16.0 0.00 0.00 0.00 77
20260903140940 83 240 4.0 15.0 0.00 0.00 0.00 77
20260903140435 82 220 7.0 8.0 0.00 0.00 0.00 79
20260903135930 81 224 9.0 14.0 0.00 0.00 0.00 80
20260903135427 81 224 9.0 14.0 0.00 0.00 0.00 80
20260903134921 81 224 13.0 18.0 0.00 0.00 0.00 80
20260903134420 81 214 7.0 9.0 0.00 0.00 0.00 81
20260903133918 81 202 11.0 16.0 0.00 0.00 0.00 81
20260903133414 80 215 5.0 14.0 0.00 0.00 0.00 82
20260903132909 81 199 9.0 14.0 0.00 0.00 0.00 82
20260903132404 80 197 6.0 10.0 0.00 0.00 0.00 82
20260903131859 80 147 9.0 14.0 0.00 0.00 0.00 82